This is the latest recevied weather packets stored in our database for station/object KB3FKJ. If no packets are shown the sender has not sent any weather packets the latest 10 day(s).
| Time | Temp. | Humidity | Pressure | Rain* | Wind** | Luminosity | Snow |
|---|---|---|---|---|---|---|---|
| 1777660089 | 14.44° C | 52% | 1010.3 hPa | 0 mm | - | 124 W/m² | - |
| 1777659786 | 13.33° C | 51% | 1010.5 hPa | 0 mm | - | 187 W/m² | - |
| 1777659483 | 13.33° C | 51% | 1010.4 hPa | 0 mm | - | 132 W/m² | - |
| 1777659180 | 13.33° C | 58% | 1010.4 hPa | 0 mm | - | 112 W/m² | - |
| 1777658877 | 13.33° C | 53% | 1010.2 hPa | 0 mm | - | 125 W/m² | - |
| 1777658573 | 13.33° C | 51% | 1010.4 hPa | 0 mm | - | 183 W/m² | - |
| 1777658269 | 13.89° C | 50% | 1010.5 hPa | 0 mm | - | 207 W/m² | - |
| 1777657968 | 13.89° C | 52% | 1010.5 hPa | 0 mm | - | 209 W/m² | - |
| 1777657663 | 13.33° C | 53% | 1010.5 hPa | 0 mm | - | 207 W/m² | - |
| 1777657361 | 13.33° C | 55% | 1010.7 hPa | 0 mm | - | 194 W/m² | - |
| 1777657059 | 13.33° C | 55% | 1010.8 hPa | 0 mm | - | 141 W/m² | - |
| 1777656755 | 13.33° C | 54% | 1010.8 hPa | 0 mm | - | 161 W/m² | - |
| 1777656451 | 13.33° C | 52% | 1011 hPa | 0 mm | - | 195 W/m² | - |
| 1777656146 | 13.33° C | 53% | 1011 hPa | 0 mm | - | 226 W/m² | - |
| 1777655843 | 13.33° C | 51% | 1010.9 hPa | 0 mm | - | 232 W/m² | - |
| 1777655540 | 12.78° C | 54% | 1011.1 hPa | 0 mm | - | 221 W/m² | - |
| 1777655237 | 13.33° C | 53% | 1010.9 hPa | 0 mm | - | 195 W/m² | - |
| 1777654933 | 12.78° C | 56% | 1011 hPa | 0 mm | - | 201 W/m² | - |
| 1777654631 | 12.78° C | 57% | 1010.9 hPa | 0 mm | - | 197 W/m² | - |
| 1777654328 | 13.33° C | 55% | 1011.1 hPa | 0 mm | - | 195 W/m² | - |
| 1777654026 | 13.33° C | 55% | 1010.9 hPa | 0 mm | - | 208 W/m² | - |
| 1777653723 | 13.89° C | 52% | 1011.2 hPa | 0 mm | - | 213 W/m² | - |
| 1777653419 | 13.33° C | 52% | 1011.3 hPa | 0 mm | - | 201 W/m² | - |
| 1777653116 | 13.33° C | 54% | 1011.3 hPa | 0 mm | - | 151 W/m² | - |
| 1777652812 | 12.78° C | 56% | 1011.4 hPa | 0 mm | - | 119 W/m² | - |
* Rain latest hour (hover to see other rain measurements)
** Current wind speed in m/s (hover to see current wind gust speed)